350P/McNaught (2026)

Japanese version
Home page
Updated on January 6, 2024

---------------------------------------------------------------------

* Profile

* Orbital Elements

Epoch 2026 Mar. 21.0 TT = JDT 2461120.5
T 2026 Mar. 18.09756 TT                                 MPCW
q   3.6943828            (2000.0)            P               Q
n   0.11949318     Peri.  140.15171     -0.89816326     +0.42395630
a   4.0823224      Node    65.29753     -0.42895361     -0.78687703
e   0.0950292      Incl.    7.36529     -0.09644459     -0.44842569
P   8.25
From 119 observations 2005 Nov. 1-2018 May 19, mean residual 0".6.

* Magnitudes Graph

        m1 = 6.5 + 5 log d + 20.0 log r

---------------------------------------------------------------------

The orbital elements are published on M.P.E.C. 2018-K95.
The magnitudes graphs are made with Comet for Windows.

---------------------------------------------------------------------

Copyright(C) Seiichi Yoshida (comet@aerith.net). All rights reserved.